Location: Arena
(42.5007°N, 9.4650°E)
Time: 03:25:35
(UTC+00:00)

SL-16 R/B - Pass Details

Date: 09 April 2020
Orbit: 842 x 846 km, 71.0° (Epoch: 29 May)

Event Time Altitude Azimuth Distance (km) Brightness Sun altitude
Rises 21:30:37 0° 344° (NNW) 3,413 6.3 -33.3°
Reaches altitude 10° 21:33:32 10° 358° (N) 2,475 5.2 -33.6°
Enters shadow 21:36:53 23° 32° (NNE) 1,731 4.0 -33.9°
